Location: Nitra
(0.0000°N, 18.0833°E)
Time: 08:27:10
(UTC+02:00)

Hubble Space Telescope - Pass Details

Date: 07 February 2023
Orbit: 527 x 530 km, 28.5° (Epoch: 27 March)

Event Time Altitude Azimuth Distance (km) Brightness Sun altitude
Exits shadow 05:06:38 12° 330° (NNW) 1,626 2.8 -13.3°
Maximum altitude 05:09:50 30° 30° (NNE) 959 2.2 -12.5°
Drops below altitude 10° 05:13:27 10° 92° (E) 1,766 4.8 -11.6°
Sets 05:15:54 0° 103° (ESE) 2,658 6.6 -11.1°
